GW7375 Weather Reports


time (UTC)temp
C
wind
direction
speed
KPH
gust
KPH
rain 1hr
cm
rain 24hr
cm
rain mn
cm
humidity
%
barometer
mb
20260510130050 5 19 0.0 4.8 0.00 0.00 0.00 76 1018.7
20260510125542 5 0 0.0 3.2 0.00 0.00 0.00 77 1018.6
20260510125044 5 0 0.0 3.2 0.00 0.00 0.00 77 1018.4
20260510124549 5 0 0.0 1.6 0.00 0.00 0.00 79 1018.5
20260510124042 4 0 0.0 1.6 0.00 0.00 0.00 80 1018.5
20260510123544 4 0 0.0 1.6 0.00 0.00 0.00 81 1018.4
20260510123055 4 0 0.0 0.0 0.00 0.00 0.00 81 1018.4
20260510122544 3 0 0.0 0.0 0.00 0.00 0.00 81 1018.4
20260510122041 3 0 0.0 0.0 0.00 0.00 0.00 82 1018.3
20260510121547 3 0 0.0 1.6 0.00 0.00 0.00 83 1018.2
20260510121043 3 0 0.0 1.6 0.00 0.00 0.00 83 1018.1
20260510120543 2 0 0.0 1.6 0.00 0.00 0.00 83 1018.0
20260510120045 2 0 0.0 0.0 0.00 0.00 0.00 82 1018.0
20260510115542 2 0 0.0 1.6 0.00 0.00 0.00 82 1018.0
20260510115043 2 0 0.0 1.6 0.00 0.00 0.00 82 1018.1
20260510114547 2 0 0.0 0.0 0.00 0.00 0.00 82 1018.0
20260510114042 2 0 0.0 0.0 0.00 0.00 0.00 82 1018.0
20260510113540 1 0 0.0 0.0 0.00 0.00 0.00 81 1018.1
20260510113052 1 0 0.0 0.0 0.00 0.00 0.00 81 1017.7
20260510112542 1 0 0.0 0.0 0.00 0.00 0.00 80 1017.7
20260510112044 1 0 0.0 0.0 0.00 0.00 0.00 80 1017.7
20260510111549 1 0 0.0 1.6 0.00 0.00 0.00 79 1017.9
20260510111041 2 0 0.0 1.6 0.00 0.00 0.00 79 1017.8
20260510110545 2 0 0.0 1.6 0.00 0.00 0.00 79 1017.7
20260510110052 2 0 0.0 1.6 0.00 0.00 0.00 78 1017.8
20260510105539 2 0 0.0 0.0 0.00 0.00 0.00 78 1017.8
20260510105043 2 0 0.0 0.0 0.00 0.00 0.00 78 1017.7
20260510104557 2 0 0.0 0.0 0.00 0.00 0.00 77 1017.6
20260510104044 2 0 0.0 3.2 0.00 0.00 0.00 77 1017.5
20260510103543 2 0 0.0 3.2 0.00 0.00 0.00 77 1017.5
20260510103051 2 109 0.0 1.6 0.00 0.00 0.00 76 1017.4
20260510102543 2 0 0.0 1.6 0.00 0.00 0.00 76 1017.3
20260510102043 2 0 0.0 1.6 0.00 0.00 0.00 76 1017.1
20260510101555 2 0 0.0 3.2 0.00 0.00 0.00 75 1016.9
20260510101042 2 0 0.0 4.8 0.00 0.00 0.00 76 1016.8
20260510100543 2 0 1.6 4.8 0.00 0.00 0.00 76 1016.8
20260510100055 2 62 0.0 3.2 0.00 0.00 0.00 75 1016.7
20260510095543 2 59 0.0 1.6 0.00 0.00 0.00 75 1016.6
20260510095043 3 0 0.0 0.0 0.00 0.00 0.00 75 1016.6
20260510094558 3 0 0.0 0.0 0.00 0.00 0.00 74 1016.6
20260510094039 3 0 0.0 0.0 0.00 0.00 0.00 74 1016.6
20260510093542 3 0 0.0 3.2 0.00 0.00 0.00 74 1016.5
20260510093051 3 0 0.0 3.2 0.00 0.00 0.00 74 1016.5
20260510092539 3 0 0.0 3.2 0.00 0.00 0.00 74 1016.5
20260510092043 3 0 0.0 1.6 0.00 0.00 0.00 74 1016.5
20260510091547 3 0 0.0 0.0 0.00 0.00 0.00 73 1016.4
20260510091047 3 0 0.0 0.0 0.00 0.00 0.00 73 1016.4
20260510090546 3 0 0.0 0.0 0.00 0.00 0.00 73 1016.3
20260510090051 3 0 0.0 0.0 0.00 0.00 0.00 73 1016.2
20260510085542 3 0 0.0 0.0 0.00 0.00 0.00 72 1016.1
20260510085042 4 0 0.0 0.0 0.00 0.00 0.00 72 1016.1
20260510084600 4 0 0.0 0.0 0.00 0.00 0.00 72 1016.0
20260510084043 4 0 0.0 0.0 0.00 0.00 0.00 72 1015.9
20260510083542 4 0 0.0 0.0 0.00 0.00 0.00 72 1015.8
20260510083112 5 0 0.0 0.0 0.00 0.00 0.00 72 1015.8
20260510082543 5 0 0.0 0.0 0.00 0.00 0.00 71 1015.7
20260510082042 5 0 0.0 0.0 0.00 0.00 0.00 70 1015.6
20260510081611 5 0 0.0 0.0 0.00 0.00 0.00 70 1015.6
20260510081044 5 0 0.0 0.0 0.00 0.00 0.00 69 1015.6
20260510080542 5 0 0.0 0.0 0.00 0.00 0.00 68 1015.4
20260510080043 5 0 0.0 0.0 0.00 0.00 0.00 67 1015.4
20260510075543 6 0 0.0 0.0 0.00 0.00 0.00 67 1015.4
20260510075043 6 0 0.0 0.0 0.00 0.00 0.00 66 1015.3
20260510074553 6 0 0.0 0.0 0.00 0.00 0.00 65 1015.3
20260510074046 6 0 0.0 0.0 0.00 0.00 0.00 63 1015.2
20260510073542 6 0 0.0 0.0 0.00 0.00 0.00 62 1015.2
20260510073054 6 0 0.0 0.0 0.00 0.00 0.00 62 1015.3
20260510072541 6 0 0.0 0.0 0.00 0.00 0.00 62 1015.3
20260510072043 6 0 0.0 0.0 0.00 0.00 0.00 63 1015.3
20260510071546 6 0 0.0 0.0 0.00 0.00 0.00 62 1015.3
20260510071042 6 0 0.0 0.0 0.00 0.00 0.00 62 1015.3
20260510070542 6 0 0.0 3.2 0.00 0.00 0.00 62 1015.2
20260510070048 6 0 0.0 3.2 0.00 0.00 0.00 65 1015.2
20260510065546 6 326 0.0 1.6 0.00 0.00 0.00 68 1015.1
20260510065043 6 0 0.0 4.8 0.00 0.00 0.00 67 1015.1
20260510064551 6 0 0.0 4.8 0.00 0.00 0.00 67 1015.1
20260510064043 5 324 0.0 1.6 0.00 0.00 0.00 68 1015.0
20260510063543 5 0 0.0 0.0 0.00 0.00 0.00 68 1015.0
20260510063047 5 0 0.0 0.0 0.00 0.00 0.00 68 1015.0
20260510062545 5 0 0.0 0.0 0.00 0.00 0.00 68 1014.8
20260510062044 5 0 0.0 0.0 0.00 0.00 0.00 67 1014.8
20260510061602 5 0 0.0 0.0 0.00 0.00 0.00 67 1014.8
20260510061044 5 0 0.0 0.0 0.00 0.00 0.00 66 1014.7
20260510060543 5 0 0.0 0.0 0.00 0.00 0.00 66 1014.7
20260510060048 5 0 0.0 0.0 0.00 0.00 0.00 65 1014.6
20260510055543 6 0 0.0 0.0 0.00 0.00 0.00 65 1014.5
20260510055043 6 0 0.0 0.0 0.00 0.00 0.00 64 1014.4
20260510054548 6 0 0.0 0.0 0.00 0.00 0.00 66 1014.3
20260510054043 6 0 0.0 0.0 0.00 0.00 0.00 66 1014.2
20260510053545 6 0 0.0 0.0 0.00 0.00 0.00 65 1014.1
20260510053055 6 0 0.0 1.6 0.00 0.00 0.00 65 1014.1
20260510052543 6 0 0.0 1.6 0.00 0.00 0.00 64 1014.0
20260510052044 6 0 0.0 1.6 0.00 0.00 0.00 63 1014.0
20260510051550 6 0 0.0 1.6 0.00 0.00 0.00 62 1013.9
20260510051045 6 0 0.0 0.0 0.00 0.00 0.00 61 1013.9
20260510050545 6 0 0.0 0.0 0.00 0.00 0.00 60 1013.8
20260510050045 6 0 0.0 1.6 0.00 0.00 0.00 59 1013.8
20260510045540 6 0 0.0 1.6 0.00 0.00 0.00 58 1013.7
20260510045040 6 0 0.0 1.6 0.00 0.00 0.00 56 1013.7
20260510044550 7 0 0.0 0.0 0.00 0.00 0.00 55 1013.7
20260510044039 7 0 0.0 0.0 0.00 0.00 0.00 55 1013.7
20260510043542 7 0 0.0 0.0 0.00 0.00 0.00 54 1013.7
20260510043048 7 0 0.0 0.0 0.00 0.00 0.00 52 1013.7
20260510042543 7 0 0.0 0.0 0.00 0.00 0.00 52 1013.6
20260510042047 7 0 0.0 0.0 0.00 0.00 0.00 51 1013.5
20260510041548 8 0 0.0 0.0 0.00 0.00 0.00 51 1013.5
20260510041043 8 0 0.0 0.0 0.00 0.00 0.00 48 1013.5
20260510040541 8 0 0.0 0.0 0.00 0.00 0.00 48 1013.4
20260510040055 8 0 0.0 0.0 0.00 0.00 0.00 49 1013.4
20260510035542 8 0 0.0 0.0 0.00 0.00 0.00 46 1013.3
20260510035042 8 0 0.0 0.0 0.00 0.00 0.00 45 1013.3
20260510034558 8 0 0.0 3.2 0.00 0.00 0.00 45 1013.2
20260510034040 9 0 0.0 3.2 0.00 0.00 0.00 45 1013.2
20260510033546 9 0 0.0 3.2 0.00 0.00 0.00 46 1013.1
20260510033050 9 0 0.0 3.2 0.00 0.00 0.00 44 1013.1
20260510032539 9 331 0.0 0.0 0.00 0.00 0.00 44 1013.1
20260510032040 10 0 0.0 0.0 0.00 0.00 0.00 44 1013.1
20260510031600 10 0 0.0 0.0 0.00 0.00 0.00 43 1013.0
20260510031039 10 0 0.0 0.0 0.00 0.00 0.00 42 1013.0
20260510030539 10 0 0.0 0.0 0.00 0.00 0.00 40 1013.0
20260510030050 11 0 0.0 1.6 0.00 0.00 0.00 39 1012.9
20260510025539 11 0 0.0 1.6 0.00 0.00 0.00 39 1012.9
20260510025039 11 0 0.0 1.6 0.00 0.00 0.00 38 1012.8
20260510024542 11 0 0.0 1.6 0.00 0.00 0.00 37 1012.7
20260510024041 11 0 0.0 4.8 0.00 0.00 0.00 37 1012.5
20260510023542 12 0 0.0 4.8 0.00 0.00 0.00 36 1012.4
20260510023048 12 336 0.0 4.8 0.00 0.00 0.00 35 1012.3
20260510022543 12 311 1.6 6.4 0.00 0.00 0.00 35 1012.2
20260510022044 12 9 1.6 6.4 0.00 0.00 0.00 35 1012.1
20260510021547 12 0 1.6 6.4 0.00 0.00 0.00 34 1012.0
20260510021042 12 348 0.0 6.4 0.00 0.00 0.00 34 1012.0
20260510020542 12 273 1.6 6.4 0.00 0.00 0.00 33 1011.8
20260510020051 12 0 0.0 11.3 0.00 0.00 0.00 33 1011.7
20260510015543 13 263 3.2 12.9 0.00 0.00 0.00 32 1011.6
20260510015042 13 292 3.2 14.5 0.00 0.00 0.00 32 1011.5
20260510014549 13 317 3.2 14.5 0.00 0.00 0.00 31 1011.4
20260510014042 13 304 3.2 12.9 0.00 0.00 0.00 31 1011.2
20260510013545 13 318 3.2 11.3 0.00 0.00 0.00 31 1011.2
20260510013050 13 305 3.2 9.7 0.00 0.00 0.00 30 1011.1
20260510012545 13 17 3.2 9.7 0.00 0.00 0.00 30 1011.0
20260510012043 13 342 3.2 9.7 0.00 0.00 0.00 30 1010.8
20260510011552 13 304 1.6 12.9 0.00 0.00 0.00 30 1010.8
20260510011044 14 0 3.2 12.9 0.00 0.00 0.00 29 1010.7
20260510010542 14 336 3.2 16.1 0.00 0.00 0.00 29 1010.6
20260510010049 14 323 3.2 16.1 0.00 0.00 0.00 29 1010.5
20260510005544 14 338 3.2 16.1 0.00 0.00 0.00 28 1010.5
20260510005042 14 345 4.8 22.5 0.00 0.00 0.00 29 1010.4
20260510004551 15 342 6.4 22.5 0.00 0.00 0.00 28 1010.2
20260510004042 15 347 9.7 22.5 0.00 0.00 0.00 27 1010.2
20260510003542 15 332 8.0 20.9 0.00 0.00 0.00 26 1010.2
20260510003054 15 281 4.8 19.3 0.00 0.00 0.00 26 1010.0
20260510002545 15 118 6.4 19.3 0.00 0.00 0.00 26 1009.9
20260510002042 15 348 8.0 24.1 0.00 0.00 0.00 25 1009.9
20260510001553 15 336 8.0 24.1 0.00 0.00 0.00 26 1009.8
20260510001043 15 247 6.4 24.1 0.00 0.00 0.00 26 1009.7
20260510000543 15 278 6.4 22.5 0.00 0.00 0.00 27 1009.6
20260510000049 15 301 9.7 20.9 0.00 0.00 0.00 26 1009.6
20260509235545 16 331 6.4 19.3 0.00 0.00 0.00 27 1009.6
20260509235042 16 340 9.7 22.5 0.00 0.00 0.00 27 1009.4
20260509234552 16 322 6.4 25.7 0.00 0.00 0.00 27 1009.3
20260509234045 16 5 11.3 25.7 0.00 0.00 0.00 26 1009.3
20260509233544 16 297 8.0 22.5 0.00 0.00 0.00 27 1009.2
20260509233048 16 270 6.4 22.5 0.00 0.00 0.00 27 1009.2
20260509232542 16 294 9.7 22.5 0.00 0.00 0.00 26 1009.1
20260509232042 16 315 6.4 24.1 0.00 0.00 0.00 26 1009.0
20260509231555 16 254 9.7 29.0 0.00 0.00 0.00 27 1009.0
20260509231042 16 300 11.3 29.0 0.00 0.00 0.00 25 1008.9
20260509230542 16 335 11.3 27.4 0.00 0.00 0.00 27 1008.7
20260509230049 16 350 9.7 25.7 0.00 0.00 0.00 26 1008.8
20260509225541 16 267 9.7 24.1 0.00 0.00 0.00 27 1008.7
20260509225042 16 253 8.0 24.1 0.00 0.00 0.00 27 1008.6
20260509224548 16 349 8.0 24.1 0.00 0.00 0.00 27 1008.6
20260509224042 16 323 6.4 24.1 0.00 0.00 0.00 26 1008.4
20260509223543 16 201 8.0 24.1 0.00 0.00 0.00 26 1008.4
20260509223047 16 338 11.3 22.5 0.00 0.00 0.00 27 1008.3
20260509222542 16 349 6.4 22.5 0.00 0.00 0.00 27 1008.3
20260509222041 16 252 11.3 30.6 0.00 0.00 0.00 27 1008.2
20260509221551 17 343 9.7 30.6 0.00 0.00 0.00 26 1008.0
20260509221042 17 288 8.0 30.6 0.00 0.00 0.00 27 1007.9
20260509220543 17 266 8.0 27.4 0.00 0.00 0.00 27 1007.9
20260509220053 17 254 11.3 27.4 0.00 0.00 0.00 28 1007.9
20260509215542 17 5 12.9 27.4 0.00 0.00 0.00 26 1007.8
20260509215042 17 232 9.7 29.0 0.00 0.00 0.00 28 1007.7
20260509214551 17 11 11.3 29.0 0.00 0.00 0.00 29 1007.7
20260509214042 17 343 12.9 35.4 0.00 0.00 0.00 29 1007.7
20260509213724 17 278 12.9 35.4 0.00 0.00 0.00 29 1007.7
20260509213050 17 13 12.9 32.2 0.00 0.00 0.00 29 1007.5
20260509212546 17 313 9.7 22.5 0.00 0.00 0.00 29 1007.4
20260509212042 17 355 9.7 22.5 0.00 0.00 0.00 30 1007.4
20260509211549 17 319 8.0 33.8 0.00 0.00 0.00 30 1007.4
20260509211042 17 239 9.7 33.8 0.00 0.00 0.00 32 1007.4
20260509210542 17 244 14.5 33.8 0.00 0.00 0.00 30 1007.2
20260509210054 17 277 9.7 22.5 0.00 0.00 0.00 30 1007.1
20260509205541 17 330 11.3 22.5 0.00 0.00 0.00 32 1007.2
20260509205041 17 5 9.7 20.9 0.00 0.00 0.00 32 1007.1
20260509204553 17 227 6.4 25.7 0.00 0.00 0.00 33 1007.1
20260509204112 17 320 11.3 29.0 0.00 0.00 0.00 34 1007.2
20260509203541 17 250 12.9 29.0 0.00 0.00 0.00 34 1007.0
20260509203052 17 223 11.3 27.4 0.00 0.00 0.00 34 1007.0
20260509202541 17 360 16.1 27.4 0.00 0.00 0.00 34 1006.9
20260509202045 17 294 11.3 33.8 0.00 0.00 0.00 34 1007.0
20260509201554 16 292 11.3 33.8 0.00 0.00 0.00 35 1006.9
20260509201042 16 325 12.9 24.1 0.00 0.00 0.00 36 1006.8
20260509200539 16 311 9.7 24.1 0.00 0.00 0.00 36 1006.8
20260509200105 16 285 9.7 24.1 0.00 0.00 0.00 39 1006.9
20260509195543 16 261 9.7 22.5 0.00 0.00 0.00 37 1006.8
20260509195042 16 266 9.7 22.5 0.00 0.00 0.00 38 1006.8
20260509194553 16 360 8.0 27.4 0.00 0.00 0.00 37 1006.7
20260509194040 16 315 11.3 27.4 0.00 0.00 0.00 37 1006.7
20260509193540 16 258 12.9 25.7 0.00 0.00 0.00 38 1006.6
20260509193102 16 292 9.7 24.1 0.00 0.00 0.00 39 1006.6
20260509192540 16 242 4.8 24.1 0.00 0.00 0.00 41 1006.6
20260509192042 16 257 9.7 24.1 0.00 0.00 0.00 40 1006.6
20260509191554 16 294 12.9 32.2 0.00 0.00 0.00 39 1006.7
20260509191041 16 340 12.9 32.2 0.00 0.00 0.00 39 1006.6
20260509190539 16 342 9.7 25.7 0.00 0.00 0.00 40 1006.5
20260509190057 16 296 9.7 25.7 0.00 0.00 0.00 40 1006.4
20260509185539 16 336 14.5 32.2 0.00 0.00 0.00 40 1006.2
20260509185039 16 338 14.5 32.2 0.00 0.00 0.00 40 1006.2
20260509184633 15 302 12.9 29.0 0.00 0.00 0.00 43 1006.2
20260509184043 15 360 6.4 25.7 0.00 0.00 0.00 42 1006.2
20260509183540 15 339 6.4 25.7 0.00 0.00 0.00 43 1006.2
20260509183055 15 319 8.0 20.9 0.00 0.00 0.00 45 1006.1
20260509182541 15 304 4.8 20.9 0.00 0.00 0.00 45 1006.0
20260509182039 15 352 6.4 30.6 0.00 0.00 0.00 45 1006.1
20260509181550 15 277 14.5 30.6 0.00 0.00 0.00 46 1006.0
20260509181040 15 355 8.0 24.1 0.00 0.00 0.00 47 1006.0
20260509180540 15 302 9.7 22.5 0.00 0.00 0.00 48 1005.9
20260509180048 15 226 11.3 17.7 0.00 0.00 0.00 50 1006.0
20260509175541 14 296 8.0 17.7 0.00 0.00 0.00 49 1006.0
20260509175040 15 267 8.0 17.7 0.00 0.00 0.00 51 1006.0
20260509174552 15 11 3.2 22.5 0.00 0.00 0.00 51 1006.0
20260509174042 15 257 8.0 22.5 0.00 0.00 0.00 51 1006.0
20260509173544 15 240 6.4 30.6 0.00 0.00 0.00 52 1005.9
20260509173054 15 284 12.9 30.6 0.00 0.00 0.00 52 1005.9
20260509172543 14 10 8.0 20.9 0.00 0.00 0.00 52 1005.9
20260509172043 14 338 4.8 19.3 0.00 0.00 0.00 54 1005.9
20260509171547 14 269 6.4 19.3 0.00 0.00 0.00 53 1005.9
20260509171046 14 17 8.0 22.5 0.00 0.00 0.00 54 1005.8
20260509170543 14 292 6.4 24.1 0.00 0.00 0.00 54 1005.8
20260509170101 14 360 8.0 24.1 0.00 0.00 0.00 55 1005.9
20260509165542 14 33 3.2 25.7 0.00 0.00 0.00 55 1005.7
20260509165043 14 315 8.0 25.7 0.00 0.00 0.00 55 1005.7
20260509164553 14 302 11.3 25.7 0.00 0.00 0.00 55 1005.8
20260509164047 14 290 9.7 20.9 0.00 0.00 0.00 54 1005.7
20260509163545 14 324 9.7 24.1 0.00 0.00 0.00 57 1005.7
20260509163110 14 13 9.7 30.6 0.00 0.00 0.00 57 1005.7
20260509162546 13 298 12.9 30.6 0.00 0.00 0.00 57 1005.6
20260509162041 13 9 9.7 22.5 0.00 0.00 0.00 59 1005.6
20260509161552 13 252 9.7 22.5 0.00 0.00 0.00 58 1005.5
20260509161046 13 249 9.7 24.1 0.00 0.00 0.00 59 1005.3
20260509160543 13 245 9.7 24.1 0.00 0.00 0.00 57 1005.4
20260509160049 13 290 11.3 24.1 0.00 0.00 0.00 58 1005.3
20260509155543 13 282 9.7 24.1 0.00 0.00 0.00 59 1005.2
20260509155043 13 336 8.0 17.7 0.00 0.00 0.00 59 1005.1
20260509154554 13 280 6.4 19.3 0.00 0.00 0.00 57 1005.0
20260509154046 13 277 9.7 25.7 0.00 0.00 0.00 58 1005.0
20260509153544 13 324 9.7 25.7 0.00 0.00 0.00 57 1004.8
20260509153058 13 36 6.4 20.9 0.00 0.00 0.00 56 1004.8
20260509152543 13 360 4.8 20.9 0.00 0.00 0.00 55 1004.6
20260509152045 13 248 8.0 20.9 0.00 0.00 0.00 55 1004.6
20260509151554 13 245 6.4 20.9 0.00 0.00 0.00 56 1004.4
20260509151044 13 259 4.8 20.9 0.00 0.00 0.00 56 1004.3
20260509150543 13 345 6.4 20.9 0.00 0.00 0.00 56 1004.3
20260509150054 13 317 8.0 19.3 0.00 0.00 0.00 56 1004.2
20260509145543 13 315 4.8 17.7 0.00 0.00 0.00 56 1004.0
20260509145044 13 290 4.8 17.7 0.00 0.00 0.00 58 1003.9
20260509144553 13 291 4.8 16.1 0.00 0.00 0.00 58 1003.8
20260509144043 12 278 4.8 16.1 0.00 0.00 0.00 59 1003.8
20260509143544 12 192 3.2 9.7 0.00 0.00 0.00 58 1003.8
20260509143055 12 291 1.6 12.9 0.00 0.00 0.00 57 1003.9
20260509142543 12 309 3.2 12.9 0.00 0.00 0.00 59 1003.9
20260509142047 11 251 1.6 4.8 0.00 0.00 0.00 63 1003.9
20260509141559 11 0 1.6 4.8 0.00 0.00 0.00 64 1003.9
20260509141048 11 0 0.0 4.8 0.00 0.00 0.00 65 1003.8
20260509140543 11 0 0.0 3.2 0.00 0.00 0.00 66 1003.8
20260509140057 11 0 0.0 0.0 0.00 0.00 0.00 67 1003.8
20260509135541 11 0 0.0 1.6 0.00 0.00 0.00 68 1003.6
20260509135043 10 0 0.0 3.2 0.00 0.00 0.00 69 1003.6
20260509134551 10 0 0.0 4.8 0.00 0.00 0.00 67 1003.8
20260509134043 10 355 1.6 4.8 0.00 0.00 0.00 70 1003.8
20260509133544 10 0 0.0 4.8 0.00 0.00 0.00 72 1003.5
20260509133051 10 342 0.0 4.8 0.00 0.00 0.00 73 1003.5
20260509132543 10 35 0.0 4.8 0.00 0.00 0.00 74 1003.4
20260509132044 9 65 0.0 1.6 0.00 0.00 0.00 75 1003.4
20260509131552 9 0 0.0 0.0 0.00 0.00 0.00 76 1003.2
20260509131041 9 0 0.0 0.0 0.00 0.00 0.00 76 1003.5
20260509130546 8 0 0.0 0.0 0.00 0.00 0.00 76 1003.6